ASTRA 5B

Last updated on May 23, 2019, 3:05 a.m. UTC

1 39617U 14011B   19142.46991794  .00000146  00000-0  00000+0 0  9999
2 39617   0.0545 303.9894 0003725 120.1933  16.2836  1.00271621 18975
UTC
Height (km)
Latitude
Longitude
Inclination
Orbital Period
UTC large
Height (km)
Speed (km/s)
/
Latitude / Longitude
Inclination (degrees)
Orbital Period (minutes)
Azimuth
Elevation
Range (km)
Doppler Factor
iOS Compass Heading
iOS Angle

Next 30 passes for location: Hong Kong

Rise time Rise Azimuth (degrees) Set time Set Azimuth (degrees) Duration Max altitude (degrees)

No matching passes for this satellites